Location: Dampvalley
(47.9094°N, 6.1967°E)
Time: 17:11:55
(UTC+00:00)

TIGRISAT - Visible Passes

Search period start: 03 December 2021 00:00
Search period end: 13 December 2021 00:00
Orbit: 603 x 689 km, 97.7° (Epoch: 02 December)

Date Brightness Start Highest point End Pass type
(mag) Time Alt. Az. Time Alt. Az. Time Alt. Az.
03 Dec ? 05:21:41 10° SSE 05:25:55 65° ENE 05:30:07 10° N visible
04 Dec ? 04:12:46 10° E 04:15:06 15° ENE 04:17:26 10° NNE visible
04 Dec ? 05:47:01 10° S 05:51:16 70° WSW 05:55:31 10° NNW visible
05 Dec ? 04:36:48 10° ESE 04:40:13 24° ENE 04:43:37 10° NNE visible
05 Dec ? 06:12:44 10° SSW 06:16:43 38° W 06:20:42 10° NNW visible
06 Dec ? 05:01:26 10° SE 05:05:24 40° ENE 05:09:24 10° N visible
07 Dec ? 05:26:27 10° SSE 05:30:41 74° ENE 05:34:56 10° N visible
08 Dec ? 04:17:13 10° E 04:19:50 16° ENE 04:22:28 10° NNE visible
08 Dec ? 05:51:52 10° S 05:56:03 61° WSW 06:00:17 10° NNW visible
09 Dec ? 04:41:24 10° ESE 04:44:57 26° ENE 04:48:31 10° N visible
09 Dec ? 06:17:41 10° SSW 06:21:31 33° W 06:25:24 10° NNW visible
10 Dec ? 05:06:07 10° SE 05:10:10 46° ENE 05:14:14 10° N visible
10 Dec ? 18:38:18 11° S 18:38:18 11° S 18:38:28 10° S visible
11 Dec ? 03:58:27 10° ENE 03:59:31 11° ENE 04:00:34 10° NE visible
11 Dec ? 05:31:14 10° SSE 05:35:28 83° ENE 05:39:44 10° NNW visible
12 Dec ? 04:21:41 10° ESE 04:24:33 18° ENE 04:27:26 10° NNE visible
12 Dec ? 05:56:43 10° S 06:00:51 53° W 06:05:03 10° NNW visible
